Regional Weather Roundup
Issued by NWS

Home | Current Version | Previous Version | Text Only | Print | Product List | Glossary On
Versions: 1 2 3 4 5 6 7 8 9 10 11 12 13 14 15 16 17 18 19 20 21 22 23 24 25 26 27 28 29 30 31 32 33 34 35 36 37 38 39 40 41 42 43 44 45 46 47 48 49 50
000
ASUS43 KLMK 261102
RWRKY
KENTUCKY REGIONAL WEATHER ROUNDUP
NATIONAL WEATHER SERVICE LOUISVILLE KY
700 AM EDT THU MAY 26 2016

NOTE "FAIR" INDICATES FEW OR NO CLOUDS BELOW 12,000 FEET
WITH NO SIGNIFICANT WEATHER AND/OR OBSTRUCTIONS TO VISIBILITY.

KYZ001>023-026-027-061>063-070>075-261200-
WESTERN AND SOUTH CENTRAL KENTUCKY

CITY           SKY/WX    TMP DP  RH WIND       PRES   REMARKS
PADUCAH        CLEAR     69  61  75 VRB5      30.01S
HENDERSON      PTCLDY    63  59  88 CALM      30.02S
OWENSBORO      PTCLDY    65  65 100 S6        30.05S
HOPKINSVILLE   CLEAR     64  63  98 SE5       30.07S
BOWLING GREEN  MOCLDY    65  62  90 E3        30.09S
GLASGOW        NOT AVBL
$$

KYZ024-025-028>034-038-045-046-053-261200-
NORTH CENTRAL KENTUCKY

CITY           SKY/WX    TMP DP  RH WIND       PRES   REMARKS
LOUISVILLE/SDF MOCLDY    68  63  84 SE8       30.06F
LOUISVILLE/LOU CLOUDY    68  62  81 SE6       30.08S
FORT KNOX      MOCLDY    65  63  93 SE6       30.06S
$$

KYZ035>037-039>044-047>052-055>060-089>105-261200-
NORTHEAST KENTUCKY

CITY           SKY/WX    TMP DP  RH WIND       PRES   REMARKS
LEXINGTON      LGT RAIN  65  63  93 S10       30.14R
COVINGTON      MOCLDY    66  63  90 S9        30.08R
FRANKFORT      CLOUDY    67  62  84 S7        30.10R
$$

KYZ054-064>069-076>088-106>120-261200-
SOUTHEAST KENTUCKY

CITY           SKY/WX    TMP DP  RH WIND       PRES   REMARKS
JACKSON        MOCLDY    67  59  75 VRB3      30.17R
LONDON         HVY RAIN  63  61  93 CALM      30.20R FOG
SOMERSET       NOT AVBL
MIDDLESBORO    CLOUDY    64  61  90 CALM      30.21R
MONTICELLO     LGT RAIN  64  62  93 VRB7      30.17F
$$





USA.gov is the U.S. government's official web portal to all federal, state and local government web resources and services.